Regional Weather Roundup
Issued by NWS Newport/Morehead, NC

Current Version | Previous Version | Graphics & Text | Print | Product List | Glossary Off
Versions: 1 2 3 4 5 6 7 8 9 10 11 12 13 14 15 16 17 18 19 20 21 22 23 24 25 26 27 28 29 30 31 32 33 34 35 36 37 38 39 40 41 42 43 44 45 46 47 48 49 50

000
ASUS42 KMHX 140210
RWRMHX
WEATHER ROUNDUP FOR EASTERN NORTH CAROLINA
NATIONAL WEATHER SERVICE NEWPORT/MOREHEAD CITY NC
1000 PM EDT SUN JUL 13 2014

NOTE: "FAIR" INDICATES FEW OR NO CLOUDS BELOW 12,000 FEET
WITH NO SIGNIFICANT WEATHER AND/OR OBSTRUCTIONS TO VISIBILITY

NCZ015>017-031-032-045>047-102-103-140300-
NORTH COAST

CITY           SKY/WX    TMP DP  RH WIND       PRES   REMARKS
EDENTON        CLEAR     80  73  79 S9        30.04R
ELIZABETH CITY CLEAR     79  73  82 S9        30.04R
KITTY HAWK     CLEAR     79  73  81 SW7       30.04S
MANTEO         NOT AVBL

$$

NCZ045>047-081-094-103-104-140300-
CENTRAL COAST

CITY           SKY/WX    TMP DP  RH WIND       PRES   REMARKS
FRISCO         CLEAR     81  73  76 SW9       30.06S
SWANQUARTER      N/A     81 N/A N/A S15       30.03R

$$

NCZ095-097-098-100-101-140300-
SOUTHERN COAST

CITY           SKY/WX    TMP DP  RH WIND       PRES   REMARKS
BEAUFORT       PTCLDY    81  74  79 S13       30.06S
CEDAR ISLAND     N/A     79 N/A N/A SE7       30.09S
JACKSONVILLE   CLEAR     77  73  87 S5        30.06S
NEWPORT        NOT AVBL
PINEY ISLAND   CLEAR     79  75  87 S7        30.05F
WILMINGTON     PTCLDY    79  74  84 SW6       30.07R


$$

NCZ011>013-027>030-043-044-078>080-089-090>093-098-140300-
COASTAL PLAIN

CITY           SKY/WX    TMP DP  RH WIND       PRES   REMARKS
AHOSKIE        CLEAR     76  72  88 S5        30.02S
CLINTON        CLEAR     78  74  86 S3        30.05F
ELIZABETHTOWN  CLEAR     79  72  80 S5        30.06R
GOLDSBORO      CLEAR     80  78  95 S6        30.02S
GREENVILLE     CLEAR     81  73  78 S12       30.06R
HAVELOCK       CLEAR     77  71  82 S5        30.07R
KENANSVILLE    CLEAR     78  73  84 S3        30.06S
KINSTON        CLEAR     79  73  83 S9        30.05R
NEW BERN       CLEAR     79  73  82 S5        30.07R
RICHLANDS      CLEAR     77  72  83 S6        30.07R
ROANOKE RAPIDS NOT AVBL
ROCKY MOUNT    CLEAR     80  73  79 S6        30.03R
WASHINGTON     CLEAR     79  73  81 S5        30.05S
WHITEVILLE     CLEAR     78  72  83 S6        30.06S

$$

AMZ130-135-150-152-154-156-158-170-250-252-270-ANZ085-086-088-633-658-670-140300-
MARINE OBSERVATIONS

STATION/POSITION TIME  TEMP    WIND        PRES    WAVE   SWELL
                       AIR SEA DIR/SP/G            HT/PER HT/PER
                 (UTC) (F)     (DEG/KT/KT) (MB)    (FT/S) (FT/S)
CHESAPEAKE LIGHT NOT AVBL
BUOY 44014       0200   77 76  180/ 12/ 14 1017.0    2/ 8   2/ 8
DUCK             0200   80 65  180/ 11/ 17 1016.4
2E DUCK          0200                        N/A     2/ 8
OREGON INLET     0200   81 84  190/ 14/ 16 1017.5
BUOY 44095       0200      76                N/A     2/ 8
HATTERAS CG      0200   80 83  200/  7/ 11 1018.3
DIAMOND BUOY     0200          VRB 12/ 14  1017.9    2/ 7   2/ 7
17S OCRACOKE INL NOT AVBL
CAPE LOOKOUT     0100   81     180/ 14/ 16 1017.8
BEAUFORT LAB     0200   81 83  200/ 15/ 17 1017.6
30 SE NEW RIVER  0200   80 82  200/ 12/ 14 1018.5    3/ 8   2/ 8
5 SE WRIGHTSVILL 0100   77 83  200/ 12/ 16 1018.3
FRYING PAN BUOY  NOT AVBL
BUOY 41001       NOT AVBL
BUOY 41002       0147   81 83  180/ 12/ 14 1019.6    3/ 8   3/ 8
BUOY 41004       0200   81 82  210/ 14/ 16 1017.9    2/ 7   2/ 7

$$


USA.gov is the U.S. government's official web portal to all federal, state and local government web resources and services.